THORAD DELTA 1 DEB, 42599

Orbit data source: Space-Track

THORAD DELTA 1 DEB, 42599 is space debris in SSO originally from a launch on Fri, 15 Nov 1974 UTC launched from the Air Force Western Test Range (AFWTR). Debris objects in space refer to the collection of defunct objects orbiting the Earth. Examples of debris include non-operational satellites, rocket bodies, and fragments generated from explosions, collisions, or faulty payload assembly.

Loading next visibility...
Identifier
42599, 1974-089FQ
Orbit
SSO
Country
Flag of USUS
Related business
Manufacturer
Unknown
Mission
Spacecraft
Bus & Motor
Unknown
Mass
Unknown
Launch date (UTC)
1974-11-15 (51 years ago)
Launch vehicle
Unknown
Launch site
Air Force Western Test Range (AFWTR)
Object type
Payload
Rocket body
Debris
Shape & HBR
Unknown shape, 0.1 m
Radar Cross Section
Small (<0.1 m²)

Expand to show TLE details & history
Last TLE update: 12 hours ago

TLE from 12 hours ago
0 THORAD DELTA 1 DEB
1 42599U 74089FQ  25289.04963139  .00000647  00000-0  38040-2 0  9992
2 42599 101.5441  25.6947 0054740 245.0539 299.1574 12.63143556535701
Epoch: 2025-10-16T01:11Z
TLE epoch observation values (Epoch: 2025-10-16T01:11:28.152Z)
Latitude
-3.71403°
Longitude
162.25654°
Altitude
1,392.559 km
Speed
7.173 km/s
True Right ascension
13h 39m 45s
True Declination
-3° 41' 37"
Sunlit
Object was in daylight at epoch
Visualization orbit readout
Latitude
Unknown
Longitude
Unknown
Altitude
Unknown
Speed
Unknown
Apparent Right ascension
Unknown
Apparent Declination
Unknown
Sunlit
N/A
Visualization observer readout
Local Sidereal Time
07:52:29
Azimuth
Unknown
Elevation
Unknown
Doppler factor
Unknown
Orbital elements
Apogee altitude
1,450.132 km
Perigee altitude
1,364.895 km
Semi-major axis
7,785.651 km
Eccentricity
0.00547
Inclination
101.5441°
RAAN
25.6947°
Arg. of periapsis
245.0539°
True anomaly
298.60779°
Mean anomaly
299.1574°
Eccentric anomaly
298.88278°
Mean motion
3.15937 °/min
Orbital period
113.95 mins
BSTAR
0.003804
Loading maneuver chart data...
Computing Atmospheric mass density...

Documentation

Showing up to 5 results
|